When you browse on this site, cookies collect data to enhance your experience and personalize the content and advertising you see.
Visit our Privacy Policy to learn more. By continuing to use the site, you agree to this use of cookies and data.
EN

Hourly Weather Ihala

Today, 5 August, Wednesday

Time Temperature Precipitation Wind Pressure Humidity
00:00 +16°C° 2 mm 2 mps 749 mmHg 99%
01:00 +16°C° 2 mm 2 mps 749 mmHg 99%
02:00 +16°C° 0 mm 2 mps 749 mmHg 99%
03:00 +16°C° 2.5 mm 2 mps 748 mmHg 99%
04:00 +16°C° 2.5 mm 1 mps 748 mmHg 99%
05:00 +16°C° 2.5 mm 1 mps 747 mmHg 99%
06:00 +16°C° 1.8 mm 1 mps 747 mmHg 99%
07:00 +16°C° 1.8 mm 2 mps 747 mmHg 99%
08:00 +16°C° 1.8 mm 2 mps 748 mmHg 98%
09:00 +17°C° 1.6 mm 2 mps 748 mmHg 95%
10:00 +17°C° 1.6 mm 3 mps 749 mmHg 92%
11:00 +17°C° 1.6 mm 4 mps 749 mmHg 89%
12:00 +19°C° 0.1 mm 3 mps 750 mmHg 79%
13:00 +20°C° 0.1 mm 3 mps 750 mmHg 68%
14:00 +21°C° 0.1 mm 3 mps 751 mmHg 57%
15:00 +21°C° 0 mm 3 mps 751 mmHg 55%
16:00 +21°C° 0 mm 3 mps 751 mmHg 52%
17:00 +21°C° 0 mm 4 mps 752 mmHg 49%
18:00 +20°C° 0 mm 3 mps 752 mmHg 56%
19:00 +18°C° 0 mm 3 mps 753 mmHg 64%
20:00 +16°C° 0 mm 3 mps 753 mmHg 71%
21:00 +16°C° 0 mm 3 mps 753 mmHg 73%
22:00 +14°C° 0 mm 3 mps 753 mmHg 75%
23:00 +14°C° 0 mm 3 mps 754 mmHg 77%

Tomorrow, 6 August, Thursday

Time Temperature Precipitation Wind Pressure Humidity
00:00 +15°C° 0 mm 2 mps 754 mmHg 77%
01:00 +15°C° 0 mm 2 mps 755 mmHg 76%
02:00 +16°C° 0 mm 2 mps 755 mmHg 76%
03:00 +15°C° 0 mm 2 mps 755 mmHg 79%
04:00 +15°C° 0 mm 2 mps 755 mmHg 81%
05:00 +14°C° 0 mm 3 mps 755 mmHg 84%
06:00 +16°C° 0 mm 3 mps 756 mmHg 79%
07:00 +16°C° 0 mm 3 mps 756 mmHg 73%
08:00 +17°C° 0 mm 3 mps 757 mmHg 67%
09:00 +18°C° 0 mm 3 mps 757 mmHg 62%
10:00 +19°C° 0 mm 3 mps 757 mmHg 57%
11:00 +20°C° 0 mm 3 mps 758 mmHg 52%
12:00 +20°C° 0 mm 3 mps 758 mmHg 58%
13:00 +19°C° 0 mm 2 mps 758 mmHg 64%
14:00 +18°C° 0 mm 2 mps 758 mmHg 69%
15:00 +18°C° 0 mm 2 mps 758 mmHg 72%
16:00 +19°C° 0 mm 1 mps 758 mmHg 74%
17:00 +19°C° 0 mm 1 mps 758 mmHg 77%
18:00 +18°C° 0 mm 1 mps 758 mmHg 82%
19:00 +18°C° 0 mm 1 mps 759 mmHg 87%
20:00 +16°C° 0 mm 1 mps 759 mmHg 91%
21:00 +15°C° 0 mm 1 mps 759 mmHg 93%
22:00 +15°C° 0 mm 1 mps 759 mmHg 95%
23:00 +15°C° 0 mm 1 mps 760 mmHg 96%

Day after tomorrow, 7 August, Friday

Time Temperature Precipitation Wind Pressure Humidity
00:00 +15°C° 0 mm 1 mps 760 mmHg 96%
01:00 +15°C° 0 mm 1 mps 760 mmHg 96%
02:00 +15°C° 0 mm 1 mps 760 mmHg 96%
03:00 +15°C° 0 mm 1 mps 760 mmHg 96%
04:00 +15°C° 0 mm 1 mps 760 mmHg 96%
05:00 +15°C° 0 mm 1 mps 760 mmHg 96%
06:00 +16°C° 0 mm 1 mps 761 mmHg 91%
07:00 +19°C° 0 mm 1 mps 761 mmHg 85%
08:00 +20°C° 0 mm 1 mps 761 mmHg 80%
09:00 +21°C° 0 mm 1 mps 761 mmHg 77%
10:00 +22°C° 0 mm 1 mps 761 mmHg 75%
11:00 +21°C° 0 mm 2 mps 761 mmHg 73%
12:00 +23°C° 0.2 mm 2 mps 761 mmHg 72%
13:00 +23°C° 0.2 mm 2 mps 761 mmHg 70%
14:00 +24°C° 0.2 mm 2 mps 761 mmHg 69%
15:00 +24°C° 0.1 mm 2 mps 761 mmHg 70%
16:00 +24°C° 0.1 mm 2 mps 761 mmHg 72%
17:00 +23°C° 0.1 mm 2 mps 760 mmHg 73%
18:00 +22°C° 0.1 mm 1 mps 760 mmHg 80%
19:00 +20°C° 0.1 mm 1 mps 760 mmHg 86%
20:00 +19°C° 0.1 mm 1 mps 760 mmHg 92%
21:00 +18°C° 0 mm 1 mps 760 mmHg 93%
22:00 +18°C° 0 mm 1 mps 760 mmHg 93%
23:00 +16°C° 0 mm 1 mps 761 mmHg 94%

8 August, Saturday

Time Temperature Precipitation Wind Pressure Humidity
00:00 +16°C° 0 mm 1 mps 761 mmHg 94%
01:00 +16°C° 0 mm 1 mps 761 mmHg 94%
02:00 +16°C° 0 mm 1 mps 761 mmHg 94%
03:00 +16°C° 0 mm 1 mps 761 mmHg 94%
04:00 +16°C° 0 mm 1 mps 761 mmHg 93%
05:00 +16°C° 0 mm 1 mps 761 mmHg 93%
06:00 +19°C° 0 mm 1 mps 761 mmHg 87%
07:00 +18°C° 0 mm 0 mps 761 mmHg 80%
08:00 +20°C° 0 mm 0 mps 761 mmHg 74%
09:00 +22°C° 0 mm 0 mps 760 mmHg 67%
10:00 +24°C° 0 mm 0 mps 760 mmHg 59%
11:00 +27°C° 0 mm 1 mps 760 mmHg 52%
12:00 +28°C° 0 mm 1 mps 760 mmHg 50%
13:00 +28°C° 0 mm 1 mps 760 mmHg 48%
14:00 +28°C° 0 mm 1 mps 759 mmHg 46%
15:00 +28°C° 0 mm 1 mps 759 mmHg 47%
16:00 +27°C° 0 mm 1 mps 759 mmHg 49%
17:00 +27°C° 0 mm 1 mps 758 mmHg 51%
18:00 +25°C° 0 mm 1 mps 758 mmHg 59%
19:00 +23°C° 0 mm 1 mps 758 mmHg 67%
20:00 +21°C° 0 mm 1 mps 758 mmHg 75%
21:00 +20°C° 0 mm 1 mps 758 mmHg 77%
22:00 +19°C° 0 mm 1 mps 758 mmHg 80%
23:00 +19°C° 0 mm 1 mps 758 mmHg 83%

9 August, Sunday

Time Temperature Precipitation Wind Pressure Humidity
00:00 +18°C° 0 mm 1 mps 758 mmHg 83%
01:00 +18°C° 0 mm 1 mps 758 mmHg 84%
02:00 +18°C° 0 mm 1 mps 758 mmHg 85%
03:00 +18°C° 0 mm 1 mps 758 mmHg 85%
04:00 +18°C° 0 mm 1 mps 757 mmHg 85%
05:00 +16°C° 0 mm 0 mps 757 mmHg 85%
06:00 +20°C° 0 mm 1 mps 757 mmHg 78%
07:00 +22°C° 0 mm 1 mps 757 mmHg 72%
08:00 +24°C° 0 mm 1 mps 757 mmHg 65%
09:00 +25°C° 0.1 mm 1 mps 757 mmHg 64%
10:00 +26°C° 0.1 mm 1 mps 757 mmHg 63%
11:00 +26°C° 0.1 mm 1 mps 757 mmHg 62%
12:00 +27°C° 0.3 mm 1 mps 757 mmHg 59%
13:00 +27°C° 0.3 mm 1 mps 757 mmHg 57%
14:00 +27°C° 0.3 mm 2 mps 756 mmHg 54%
15:00 +27°C° 0 mm 2 mps 756 mmHg 52%
16:00 +27°C° 0 mm 2 mps 756 mmHg 50%
17:00 +27°C° 0 mm 2 mps 756 mmHg 47%
18:00 +25°C° 0 mm 2 mps 756 mmHg 55%
19:00 +23°C° 0 mm 2 mps 756 mmHg 63%
20:00 +21°C° 0 mm 2 mps 756 mmHg 71%
21:00 +20°C° 0.1 mm 2 mps 756 mmHg 76%
22:00 +19°C° 0.1 mm 2 mps 756 mmHg 80%
23:00 +18°C° 0.1 mm 2 mps 756 mmHg 85%

10 August, Monday

Time Temperature Precipitation Wind Pressure Humidity
00:00 +18°C° 0.1 mm 2 mps 756 mmHg 88%
01:00 +18°C° 0.1 mm 3 mps 756 mmHg 91%
02:00 +18°C° 0.1 mm 3 mps 756 mmHg 93%
03:00 +17°C° 0 mm 3 mps 756 mmHg 90%
04:00 +16°C° 0 mm 3 mps 756 mmHg 87%
05:00 +16°C° 0 mm 3 mps 756 mmHg 84%
06:00 +17°C° 0 mm 4 mps 756 mmHg 79%
07:00 +18°C° 0 mm 4 mps 756 mmHg 74%
08:00 +18°C° 0 mm 4 mps 756 mmHg 69%
09:00 +19°C° 0 mm 4 mps 757 mmHg 62%
10:00 +21°C° 0 mm 4 mps 757 mmHg 55%
11:00 +22°C° 0 mm 4 mps 757 mmHg 48%
12:00 +22°C° 0 mm 4 mps 757 mmHg 51%
13:00 +21°C° 0 mm 5 mps 757 mmHg 54%
14:00 +21°C° 0 mm 5 mps 757 mmHg 57%
15:00 +21°C° 0 mm 5 mps 757 mmHg 59%
16:00 +20°C° 0 mm 5 mps 757 mmHg 61%
17:00 +19°C° 0 mm 5 mps 757 mmHg 63%
18:00 +18°C° 0 mm 4 mps 757 mmHg 66%
19:00 +18°C° 0 mm 4 mps 757 mmHg 69%
20:00 +17°C° 0 mm 4 mps 758 mmHg 72%
21:00 +15°C° 0 mm 4 mps 758 mmHg 75%
22:00 +15°C° 0 mm 4 mps 758 mmHg 78%
23:00 +15°C° 0 mm 4 mps 758 mmHg 81%
Show more